Weather in Moshonki

Russia / Kaluga Oblast     54°16′56″N   35°37′34″E
temp.,
°C
wind,
m/s
gust,
m/s
humid.,
%
clouds,
%
prec.,
mm/h
press.,
hPa
HPBL,
m
7 march, sun
sun700:00−11wsw410900 0.0 1016154
03:00−9sw7148724 0.0 1013385
06:00−8sw9178697 0.0 1009648
09:00−6sw11198899 0.1 1004946
12:00−3sw121992100 0.4 9991153
15:00−1wsw121989100 0.8 9971435
18:00−4w4993100 2.8 997652
21:00−5w6148399 4.4 999674
8 march, mon
mon800:00−8wsw6138512 0.0 999311
03:00−7wsw6138955 0.0 1000498
06:00−8w6149095 0.0 999510
09:00−9wnw5128585 0.1 1002464
12:00−7wnw698526 0.0 1004845
15:00−6wnw698363 0.1 10061058
18:00−7nw4894100 0.1 1008323
21:00−10nw489299 0.3 1011152
9 march, tue
tue900:00−13nw349682 0.0 101362
03:00−14nnw349783 0.1 101568
06:00−17nnw339765 0.0 101633
09:00−15nnw249648 0.0 1018131
12:00−11nw358961 0.0 1018468
15:00−9nw468381 0.1 1019852
18:00−12nw348796 0.0 101949
21:00−16nw238848 0.0 102220
10 march, wed
wed1000:00−17wnw229211 0.0 102320
03:00−16w129452 0.0 102320
06:00−15ssw1197100 0.2 102320
09:00−13e3495100 0.7 1024163
12:00−12e5694100 0.6 1024399
15:00−11e5793100 1.2 1024460
18:00−14e5893100 0.3 1024347
21:00−17e51091100 0.3 1026259
11 march, thu
thu1100:00−19ese5990100 0.0 1026257
03:00−19ese588998 0.0 1026240
06:00−19ese589798 0.1 1026258
09:00−18ese589699 0.7 1026307
12:00−13se5893100 0.4 1025408
15:00−11se5793100 0.7 1023431
18:00−10se489599 0.3 1021287
21:00−10se479797 0.4 1020128